QPF
0.00 0.00 0.00 0.00 0.00 0.00 0.00 0.00 0.00 0.00 0.00 0.00 0.00 0.00 0.00 0.00 0.00 0.00 0.00 0.00 0.00 0.00 0.00 0.00 0.00 0.00 0.00 0.00 0.00 0.00 0.00 0.00 0.00 0.00 0.00 0.00 0.00 0.00 0.00 0.01 0.00 0.00 0.00 0.00 0.00
0.00 0.00 0.00 0.00 0.00 0.00 0.00 0.00 0.00 0.00 0.00 0.00 0.00 0.00 0.00 0.00 0.00 0.00 0.00 0.00 0.00 0.00 0.00 0.00 0.00 0.00 0.00 0.00 0.00 0.00 0.00 0.00 0.00 0.00 0.00 0.00 0.00 0.00 0.00 0.02 0.03 0.01 0.05 0.05 0.00
0.00 0.00 0.00 0.00 0.00 0.00 0.00 0.00 0.00 0.00 0.00 0.00 0.00 0.00 0.00 0.00 0.00 0.00 0.00 0.00 0.00 0.00 0.00 0.00 0.00 0.00 0.00 0.00 0.00 0.00 0.00 0.00 0.00 0.00 0.00 0.00 0.00 0.00 0.00 0.01 0.01 0.02 0.03 0.05 0.00
0.00 0.00 0.00 0.00 0.00 0.00 0.00 0.00 0.00 0.00 0.00 0.00 0.00 0.00 0.00 0.00 0.00 0.00 0.00 0.00 0.00 0.00 0.00 0.00 0.00 0.00 0.00 0.00 0.00 0.00 0.00 0.00 0.00 0.00 0.00 0.00 0.00 0.00 0.00 0.00 0.00 0.01 0.01 0.02 0.00
0.00 0.00 0.00 0.00 0.00 0.00 0.00 0.00 0.00 0.00 0.00 0.00 0.00 0.00 0.00 0.00 0.00 0.00 0.00 0.00 0.00 0.00 0.00 0.00 0.00 0.00 0.00 0.00 0.00 0.00 0.00 0.00 0.00 0.00 0.00 0.00 0.00 0.00 0.00 0.00 0.00 0.00 0.00 0.00 0.00
0.00 0.00 0.00 0.00 0.00 0.00 0.00 0.00 0.00 0.00 0.00 0.00 0.00 0.00 0.00 0.00 0.00 0.00 0.00 0.00 0.00 0.00 0.00 0.00 0.00 0.00 0.00 0.00 0.00 0.00 0.00 0.00 0.00 0.00 0.00 0.00 0.00 0.00 0.00 0.00 0.00 0.00 0.00 0.00 0.00
0.00 0.00 0.00 0.00 0.00 0.00 0.00 0.00 0.00 0.00 0.00 0.00 0.00 0.00 0.00 0.00 0.00 0.00 0.00 0.00 0.00 0.00 0.00 0.00 0.00 0.00 0.00 0.00 0.00 0.00 0.00 0.00 0.00 0.00 0.00 0.00 0.00 0.03 0.00 0.00 0.00 0.00 0.00 0.00 0.00
0.00 0.00 0.00 0.00 0.00 0.00 0.00 0.00 0.00 0.00 0.00 0.00 0.00 0.00 0.00 0.00 0.00 0.00 0.00 0.00 0.00 0.00 0.00 0.00 0.00 0.00 0.00 0.00 0.00 0.00 0.00 0.00 0.00 0.00 0.00 0.00 0.00 0.01 0.00 0.00 0.00 0.00 0.00 0.00 0.00
0.00 0.00 0.00 0.00 0.00 0.00 0.00 0.00 0.00 0.00 0.00 0.00 0.00 0.00 0.00 0.00 0.00 0.00 0.00 0.00 0.00 0.00 0.00 0.00 0.00 0.00 0.00 0.00 0.00 0.00 0.00 0.00 0.00 0.00 0.00 0.00 0.00 0.00 0.00 0.00 0.00 0.00 0.00 0.00 0.00
0.00 0.00 0.00 0.00 0.00 0.00 0.00 0.00 0.00 0.00 0.00 0.00 0.00 0.00 0.00 0.00 0.00 0.00 0.00 0.00 0.00 0.00 0.00 0.00 0.00 0.00 0.00 0.00 0.00 0.00 0.00 0.00 0.00 0.00 0.00 0.00 0.00 0.00 0.00 0.00 0.00 0.00 0.00 0.00 0.00
0.00 0.00 0.00 0.00 0.00 0.00 0.00 0.00 0.00 0.00 0.00 0.00 0.00 0.00 0.00 0.00 0.00 0.00 0.00 0.00 0.00 0.00 0.00 0.00 0.00 0.00 0.00 0.00 0.00 0.00 0.00 0.00 0.00 0.00 0.00 0.00 0.00 0.00 0.00 0.00 0.00 0.00 0.00 0.00 0.00
0.00 0.00 0.00 0.00 0.00 0.00 0.00 0.00 0.00 0.00 0.00 0.00 0.00 0.00 0.00 0.00 0.00 0.00 0.00 0.00 0.00 0.00 0.00 0.00 0.00 0.00 0.00 0.00 0.00 0.00 0.00 0.00 0.00 0.00 0.00 0.00 0.00 0.00 0.00 0.00 0.00 0.00 0.00 0.00 0.00
0.00 0.00 0.00 0.00 0.00 0.00 0.00 0.00 0.00 0.00 0.00 0.00 0.00 0.00 0.00 0.00 0.00 0.00 0.00 0.00 0.00 0.00 0.00 0.00 0.00 0.00 0.00 0.00 0.00 0.00 0.00 0.00 0.00 0.00 0.00 0.00 0.00 0.00 0.00 0.00 0.00 0.00 0.00 0.00 0.00
0.00 0.00 0.00 0.00 0.00 0.00 0.00 0.00 0.00 0.00 0.00 0.00 0.00 0.00 0.00 0.00 0.00 0.00 0.00 0.00 0.00 0.00 0.00 0.00 0.00 0.00 0.00 0.00 0.00 0.00 0.00 0.00 0.00 0.00 0.00 0.00 0.00 0.00 0.00 0.00 0.00 0.00 0.00 0.00 0.00
0.00 0.00 0.00 0.00 0.00 0.00 0.00 0.00 0.00 0.00 0.00 0.00 0.00 0.00 0.00 0.00 0.00 0.00 0.00 0.00 0.00 0.00 0.00 0.00 0.00 0.00 0.00 0.00 0.00 0.00 0.00 0.00 0.00 0.00 0.00 0.00 0.00 0.00 0.00 0.00 0.00 0.00 0.00 0.00 0.00
0.00 0.00 0.00 0.00 0.00 0.00 0.00 0.00 0.00 0.00 0.00 0.00 0.00 0.00 0.00 0.00 0.00 0.00 0.00 0.00 0.00 0.00 0.00 0.00 0.00 0.00 0.00 0.00 0.00 0.00 0.00 0.00 0.00 0.00 0.00 0.00 0.00 0.00 0.00 0.00 0.00 0.00 0.00 0.00 0.00
0.00 0.00 0.00 0.00 0.00 0.00 0.00 0.00 0.00 0.00 0.00 0.00 0.00 0.00 0.00 0.00 0.00 0.00 0.00 0.00 0.00 0.00 0.00 0.00 0.00 0.00 0.00 0.00 0.00 0.00 0.00 0.00 0.00 0.00 0.00 0.00 0.00 0.00 0.00 0.00 0.00 0.00 0.00 0.00 0.00
0.00 0.00 0.00 0.00 0.00 0.00 0.00 0.00 0.00 0.00 0.00 0.00 0.00 0.00 0.00 0.00 0.00 0.00 0.00 0.00 0.00 0.00 0.00 0.00 0.00 0.00 0.00 0.00 0.00 0.00 0.00 0.00 0.00 0.00 0.00 0.00 0.00 0.00 0.00 0.00 0.00 0.00 0.00 0.00 0.00
0.00 0.00 0.00 0.00 0.00 0.00 0.00 0.00 0.00 0.00 0.00 0.00 0.00 0.00 0.00 0.00 0.00 0.00 0.00 0.00 0.00 0.00 0.00 0.00 0.00 0.00 0.00 0.00 0.00 0.00 0.00 0.00 0.00 0.00 0.00 0.00 0.00 0.00 0.00 0.00 0.00 0.00 0.00 0.00 0.00
0.00 0.00 0.00 0.00 0.00 0.00 0.00 0.00 0.00 0.00 0.00 0.00 0.00 0.00 0.00 0.00 0.00 0.00 0.00 0.00 0.00 0.00 0.00 0.00 0.00 0.00 0.00 0.00 0.00 0.00 0.00 0.00 0.00 0.00 0.00 0.00 0.00 0.00 0.00 0.00 0.00 0.00 0.00 0.00 0.00
0.00 0.00 0.00 0.00 0.00 0.00 0.00 0.00 0.00 0.00 0.00 0.00 0.00 0.00 0.00 0.00 0.00 0.00 0.00 0.00 0.00 0.00 0.00 0.00 0.00 0.00 0.00 0.00 0.00 0.00 0.00 0.00 0.00 0.00 0.00 0.00 0.00 0.00 0.00 0.00 0.00 0.00 0.00 0.00 0.00
0.00 0.00 0.00 0.00 0.00 0.00 0.00 0.00 0.00 0.00 0.00 0.00 0.00 0.00 0.00 0.00 0.00 0.00 0.00 0.00 0.00 0.00 0.00 0.00 0.00 0.00 0.00 0.00 0.00 0.00 0.00 0.00 0.00 0.00 0.00 0.00 0.00 0.00 0.00 0.00 0.00 0.00 0.00 0.00 0.00
0.00 0.00 0.00 0.00 0.00 0.00 0.00 0.00 0.00 0.00 0.00 0.00 0.00 0.00 0.00 0.00 0.00 0.00 0.00 0.00 0.00 0.00 0.00 0.00 0.00 0.00 0.00 0.00 0.00 0.00 0.00 0.00 0.00 0.00 0.00 0.00 0.00 0.00 0.00 0.00 0.00 0.00 0.00 0.00 0.00
0.00 0.00 0.00 0.00 0.00 0.00 0.00 0.00 0.00 0.00 0.00 0.00 0.00 0.00 0.00 0.00 0.00 0.00 0.00 0.00 0.00 0.00 0.00 0.00 0.00 0.00 0.00 0.00 0.00 0.00 0.00 0.00 0.00 0.00 0.00 0.00 0.00 0.00 0.00 0.00 0.00 0.00 0.00 0.00 0.00
0.00 0.00 0.00 0.00 0.00 0.00 0.00 0.00 0.00 0.00 0.00 0.00 0.00 0.00 0.00 0.00 0.00 0.00 0.00 0.00 0.00 0.00 0.00 0.00 0.00 0.00 0.00 0.00 0.00 0.00 0.00 0.00 0.00 0.00 0.00 0.00 0.00 0.00 0.00 0.00 0.00 0.00 0.00 0.00 0.00
0.00 0.00 0.00 0.00 0.00 0.00 0.00 0.00 0.00 0.00 0.00 0.00 0.00 0.00 0.00 0.00 0.00 0.00 0.00 0.00 0.00 0.00 0.00 0.00 0.00 0.00 0.00 0.00 0.00 0.00 0.00 0.00 0.00 0.00 0.00 0.00 0.00 0.00 0.00 0.00 0.00 0.01 0.00 0.00 0.00
0.00 0.00 0.00 0.00 0.00 0.00 0.00 0.00 0.00 0.00 0.00 0.00 0.00 0.00 0.00 0.00 0.00 0.00 0.00 0.00 0.00 0.00 0.00 0.00 0.00 0.00 0.00 0.00 0.00 0.00 0.00 0.00 0.00 0.00 0.00 0.00 0.00 0.00 0.00 0.00 0.00 0.00 0.00 0.00 0.00
MSLP
1015.53 1015.29 1015.05 1014.80 1014.57 1014.33 1014.08 1013.77 1013.46 1013.13 1012.77 1012.37 1011.96 1011.54 1011.16 1010.72 1009.56 1008.47 1007.05 1005.91 1005.63 1005.29 1005.17 1003.74 1002.37 1000.90 1000.29 999.89 1000.27 1002.07 1004.10 1002.68 1002.25 1002.08 1002.17 1002.15 1002.37 1002.35 1002.77 1003.24 1002.98 1003.97 1005.41 1005.50 1005.59
1015.50 1015.27 1015.06 1014.86 1014.61 1014.32 1014.04 1013.69 1013.41 1013.12 1012.73 1012.38 1011.92 1011.49 1011.18 1010.76 1009.13 1006.68 1005.80 1005.54 1005.40 1005.44 1004.66 1002.70 1001.45 1000.57 999.84 999.63 999.87 1001.54 1002.74 1002.03 1002.07 1001.85 1001.99 1001.91 1002.15 1002.40 1002.50 1003.22 1004.94 1004.98 1006.68 1006.03 1006.27
1015.46 1015.23 1015.03 1014.88 1014.59 1014.26 1013.97 1013.67 1013.37 1013.09 1012.69 1012.30 1011.83 1011.41 1011.19 1010.83 1008.21 1005.30 1005.63 1005.59 1005.36 1005.50 1004.92 1003.32 1001.68 1000.51 999.60 999.14 1000.14 1001.04 1001.44 1001.56 1001.81 1002.24 1002.09 1001.96 1001.61 1001.55 1002.28 1003.17 1003.74 1005.03 1005.81 1006.96 1006.38
1015.44 1015.21 1015.01 1014.80 1014.54 1014.19 1013.91 1013.60 1013.34 1013.02 1012.64 1012.23 1011.76 1011.35 1011.01 1009.83 1006.48 1005.06 1005.44 1005.41 1005.42 1005.39 1004.64 1002.80 1001.29 1000.33 999.70 999.30 999.85 1000.57 1001.24 1001.23 1001.73 1001.83 1001.78 1001.75 1001.88 1001.67 1001.99 1002.49 1002.66 1004.31 1005.30 1005.69 1005.68
1015.42 1015.14 1014.91 1014.68 1014.44 1014.11 1013.77 1013.48 1013.21 1012.87 1012.47 1012.11 1011.76 1011.44 1010.16 1008.11 1004.90 1004.68 1005.03 1005.20 1005.09 1004.98 1004.00 1002.44 1001.29 1000.32 999.75 999.70 999.85 1000.36 1000.91 1000.60 1001.15 1001.19 1001.44 1001.72 1002.02 1002.08 1002.05 1002.32 1002.71 1003.54 1004.18 1004.64 1005.07
1015.37 1015.09 1014.83 1014.54 1014.30 1013.99 1013.67 1013.36 1013.08 1012.73 1012.31 1011.96 1011.71 1011.55 1010.06 1006.31 1003.72 1003.72 1004.03 1004.42 1004.20 1004.10 1003.20 1002.35 1001.60 1001.47 1000.64 1000.08 1000.27 1000.71 1000.57 1000.23 1000.49 1000.85 1001.01 1001.71 1002.06 1002.42 1002.02 1002.00 1002.32 1002.89 1003.45 1003.96 1004.37
1015.31 1014.97 1014.66 1014.40 1014.09 1013.83 1013.57 1013.22 1012.87 1012.52 1012.10 1011.79 1011.68 1011.06 1008.27 1004.95 1003.76 1003.54 1003.86 1003.60 1003.57 1003.19 1002.39 1002.05 1002.14 1001.84 1001.13 1000.30 1000.51 1000.69 1000.05 999.67 1000.15 1000.51 1000.71 1001.49 1002.62 1004.16 1002.08 1001.67 1001.83 1002.41 1002.99 1003.24 1003.88
1015.14 1014.82 1014.47 1014.20 1013.95 1013.67 1013.40 1013.03 1012.60 1012.20 1011.81 1011.53 1011.55 1010.41 1006.63 1003.56 1003.47 1003.77 1003.51 1003.27 1003.15 1002.97 1002.67 1002.43 1002.58 1002.33 1001.53 1000.75 1000.43 1000.14 999.90 999.28 999.62 1000.06 1000.34 1000.76 1002.35 1002.30 1001.76 1001.24 1001.12 1001.55 1002.04 1002.65 1003.35
1014.96 1014.64 1014.33 1014.06 1013.78 1013.49 1013.19 1012.81 1012.23 1011.79 1011.50 1011.32 1010.84 1008.94 1005.09 1003.98 1003.67 1003.61 1003.27 1002.83 1002.94 1003.01 1002.92 1002.93 1003.02 1002.21 1001.22 1000.39 999.74 999.48 999.01 999.24 999.12 999.34 999.82 1000.05 1000.18 999.97 999.83 1000.19 1000.45 1000.62 1001.08 1001.84 1002.64
1014.75 1014.48 1014.18 1013.92 1013.68 1013.36 1012.95 1012.63 1011.70 1011.53 1010.86 1009.90 1008.89 1007.38 1004.12 1002.89 1002.52 1002.87 1003.00 1002.85 1002.47 1002.67 1002.63 1002.65 1002.47 1001.66 1000.62 999.88 998.93 999.17 999.51 998.87 999.11 999.23 999.60 999.76 999.38 999.11 998.67 998.96 999.43 999.87 1000.15 1000.93 1001.59
1014.47 1014.21 1013.97 1013.75 1013.57 1013.40 1012.68 1011.39 1011.11 1009.85 1008.37 1006.03 1004.94 1003.71 1002.30 1001.90 1001.93 1002.59 1002.58 1002.92 1002.65 1002.36 1002.07 1001.83 1001.54 1000.54 999.75 999.23 999.21 999.81 999.92 999.47 999.23 999.08 999.40 999.20 998.73 997.99 997.84 997.94 998.24 998.88 999.48 999.69 1000.51
1014.11 1013.87 1013.70 1013.57 1013.44 1013.40 1013.11 1009.55 1005.98 1005.02 1004.94 1004.72 1003.84 1003.11 1002.57 1001.98 1001.99 1002.27 1002.40 1002.67 1002.32 1001.93 1001.53 1001.42 1000.46 1000.03 1000.00 999.73 999.68 1000.08 999.94 999.62 999.20 998.80 999.13 998.76 997.87 997.13 996.77 997.03 997.50 997.70 998.36 998.91 999.66
1013.76 1013.52 1013.45 1013.39 1013.28 1012.99 1010.31 1007.48 1005.51 1004.87 1003.66 1002.39 1002.73 1002.25 1002.16 1002.40 1001.36 1001.11 1001.95 1002.12 1001.66 1001.46 1001.04 1000.39 999.69 999.41 999.99 999.85 999.75 999.68 999.54 999.39 999.17 998.99 999.08 998.06 997.20 996.34 996.01 996.89 997.19 997.24 997.33 997.74 998.45
1013.43 1013.21 1013.16 1013.21 1013.41 1009.10 1008.00 1006.62 1006.11 1005.02 1003.25 1001.18 1001.50 1001.30 1001.45 1001.76 1001.09 1000.23 1001.22 1001.66 1001.37 1000.95 1000.52 1000.02 999.65 999.66 999.66 999.74 999.94 999.44 999.12 998.95 999.27 999.30 998.78 998.28 997.11 996.03 996.34 996.48 996.52 996.47 996.52 996.73 997.59
1013.06 1012.89 1012.88 1013.28 1011.37 1007.36 1005.25 1005.19 1005.12 1004.84 1001.82 1000.64 1000.48 1000.45 1000.79 1000.96 999.92 1000.62 1000.84 1001.33 1000.90 1000.41 1000.69 1000.00 999.37 999.68 999.68 999.66 999.54 999.51 999.28 999.26 999.53 999.38 998.94 997.72 996.62 995.89 996.03 996.09 996.36 996.30 996.73 996.78 996.93
1012.78 1012.62 1012.78 1012.26 1010.88 1007.24 1005.35 1005.25 1005.22 1003.82 1000.09 999.53 1000.02 1000.48 1000.48 1000.59 999.99 1000.45 1000.92 1001.22 1000.74 1000.73 1000.19 1000.01 999.61 999.62 999.64 999.46 999.40 999.63 999.72 999.53 999.26 999.11 998.56 997.36 996.57 995.40 995.78 995.83 996.15 996.17 996.74 996.96 997.00
1012.40 1012.27 1012.49 1009.81 1006.65 1005.43 1005.31 1005.06 1003.82 1001.26 998.78 998.76 999.23 999.62 999.81 1000.00 999.88 1000.08 1000.63 1000.82 1000.76 1000.43 999.73 999.12 998.68 998.77 999.21 999.46 999.23 999.43 999.38 998.94 998.18 998.03 998.30 998.64 996.93 995.81 995.52 995.69 996.01 996.16 996.27 996.84 997.24
1012.17 1012.08 1010.47 1009.12 1007.25 1005.89 1005.24 1004.49 1002.15 999.30 997.93 997.89 998.32 999.15 999.36 999.09 999.27 999.63 1000.09 1000.07 1000.31 999.90 999.19 998.22 997.47 997.77 998.06 998.88 998.87 998.57 998.47 998.19 997.75 997.44 997.17 997.02 996.34 995.68 995.67 995.82 996.28 996.17 996.37 996.99 997.40
1012.28 1010.92 1008.69 1006.69 1007.05 1005.88 1004.84 1002.96 1000.24 998.57 997.80 997.98 998.22 998.46 998.61 998.46 998.59 999.03 999.22 998.93 998.69 998.98 999.17 998.60 997.81 997.80 998.49 998.76 999.00 998.62 998.17 997.85 997.67 997.50 997.13 996.57 996.45 997.16 996.98 996.65 996.74 996.72 996.96 997.24 997.44
1010.93 1008.13 1005.37 1004.93 1005.42 1005.38 1004.20 1001.88 1000.15 999.35 999.07 998.59 997.90 998.09 997.73 997.96 998.41 998.69 998.55 998.42 998.52 999.32 999.95 999.82 999.20 998.53 998.15 998.39 998.83 998.84 998.65 998.15 997.67 997.73 997.52 996.93 997.44 998.69 998.47 998.02 997.67 997.88 998.39 998.28 998.04
1010.28 1006.80 1004.05 1004.41 1004.86 1004.48 1002.84 1000.80 999.75 999.89 1000.00 999.34 998.32 997.82 997.76 997.53 997.81 998.35 998.27 998.78 999.16 999.79 1000.51 1000.65 1000.20 999.57 998.91 998.22 997.93 997.83 998.19 998.44 998.38 998.40 997.92 997.49 997.59 997.69 998.45 998.44 998.50 998.83 999.68 999.65 999.28
1008.71 1005.29 1003.94 1004.03 1004.11 1003.18 1001.92 1000.48 1000.68 1000.25 1000.24 999.87 999.41 998.77 998.42 998.20 998.16 998.57 998.74 999.75 1000.60 1000.86 1001.08 1001.17 1001.05 1000.21 999.56 998.89 998.51 998.19 997.91 998.11 998.24 998.70 998.40 998.57 998.42 998.25 999.10 999.96 999.52 1000.18 1000.73 1001.03 1000.78
1008.44 1004.23 1003.46 1003.59 1002.77 1001.61 1000.84 1000.93 1001.06 1000.58 1000.31 1000.10 1000.04 999.88 999.71 999.68 999.83 999.75 999.75 1001.01 1001.60 1002.01 1003.09 1002.83 1001.91 1000.98 1000.23 999.48 998.22 998.81 998.19 998.41 998.45 998.67 998.63 998.56 998.10 998.91 999.83 1000.31 1001.80 1002.43 1001.92 1002.12 1001.81
1008.74 1003.83 1003.04 1003.35 1002.81 1001.92 1000.38 1000.88 1000.99 1001.52 1001.39 1001.21 1000.96 1000.91 1001.15 1000.89 1000.86 1000.99 1000.83 1000.80 1001.88 1002.63 1003.82 1004.00 1003.42 1002.86 1002.02 1001.09 1000.26 1000.05 999.59 999.46 999.62 999.11 999.07 999.18 998.27 998.99 1001.64 1002.98 1003.76 1003.80 1003.03 1002.87 1002.68
1008.18 1004.25 1003.19 1002.26 1002.11 1001.66 1001.28 1001.27 1000.96 1001.20 1001.88 1002.05 1002.05 1001.98 1001.86 1001.68 1001.33 1001.05 1001.20 1001.42 1002.12 1003.16 1003.86 1004.25 1003.96 1003.58 1002.86 1002.24 1001.53 1000.76 1000.32 1000.14 1000.02 1000.00 999.79 999.44 999.08 999.63 1001.00 1002.87 1003.84 1002.97 1003.90 1003.36 1003.32
1008.32 1006.83 1005.50 1003.58 1003.08 1002.79 1002.48 1002.32 1001.99 1001.75 1002.26 1002.42 1002.57 1002.66 1002.73 1003.20 1003.10 1002.73 1002.43 1002.49 1002.68 1003.01 1003.32 1003.58 1003.81 1003.87 1003.40 1002.95 1002.26 1001.43 1000.95 1000.54 1000.30 1000.17 999.97 999.99 999.83 1000.10 1000.59 1002.05 1003.64 1004.62 1003.68 1004.01 1004.19
1010.48 1008.63 1007.33 1005.13 1003.95 1003.35 1002.63 1002.56 1002.74 1003.33 1003.54 1003.95 1004.07 1004.20 1004.13 1004.77 1004.80 1004.41 1004.09 1003.99 1003.88 1003.69 1003.67 1003.88 1003.99 1004.19 1003.61 1003.54 1002.82 1001.90 1001.28 1000.53 1000.16 1000.23 1000.34 1000.22 1000.40 1000.96 1001.62 1002.59 1003.32 1003.73 1004.28 1004.89 1004.90
Thickness
5740 5744 5748 5752 5755 5758 5761 5764 5768 5772 5777 5782 5788 5793 5797 5802 5813 5824 5823 5841 5847 5852 5855 5861 5869 5877 5883 5875 5879 5858 5795 5807 5821 5820 5823 5845 5832 5850 5854 5836 5848 5842 5822 5825 5835
5740 5743 5748 5751 5755 5758 5762 5765 5769 5773 5778 5783 5789 5794 5797 5802 5817 5828 5846 5849 5852 5852 5852 5858 5857 5871 5866 5871 5875 5838 5805 5822 5840 5841 5831 5840 5837 5836 5837 5830 5811 5819 5813 5806 5825
5740 5743 5747 5751 5755 5759 5763 5766 5770 5774 5779 5784 5790 5795 5798 5803 5815 5834 5849 5850 5854 5853 5855 5863 5868 5868 5862 5881 5861 5847 5824 5841 5841 5842 5844 5837 5841 5853 5833 5817 5828 5818 5815 5805 5816
5739 5744 5748 5751 5755 5759 5763 5767 5771 5776 5781 5786 5791 5796 5801 5811 5796 5846 5852 5853 5855 5855 5854 5859 5862 5854 5856 5857 5868 5834 5845 5847 5842 5846 5843 5836 5847 5842 5842 5838 5850 5835 5826 5818 5824
5739 5744 5748 5752 5756 5760 5765 5769 5774 5778 5784 5788 5793 5797 5811 5812 5828 5858 5858 5857 5858 5855 5849 5852 5850 5855 5848 5859 5862 5843 5844 5855 5852 5852 5849 5849 5838 5837 5840 5851 5854 5842 5834 5830 5828
5740 5745 5749 5753 5757 5761 5766 5771 5776 5781 5786 5791 5795 5798 5807 5804 5866 5868 5868 5863 5861 5856 5856 5859 5853 5858 5850 5853 5847 5851 5851 5855 5856 5851 5853 5835 5833 5835 5843 5855 5849 5845 5839 5838 5834
5741 5746 5751 5755 5759 5763 5768 5773 5779 5784 5789 5794 5796 5804 5813 5826 5867 5871 5868 5865 5869 5865 5856 5868 5866 5851 5855 5848 5865 5855 5840 5859 5852 5852 5846 5844 5803 5788 5841 5851 5843 5840 5838 5839 5836
5743 5748 5753 5758 5762 5767 5771 5777 5783 5788 5793 5797 5799 5807 5812 5868 5872 5865 5870 5866 5874 5874 5869 5873 5870 5854 5850 5865 5856 5843 5849 5833 5852 5853 5854 5846 5785 5816 5840 5847 5841 5841 5841 5837 5835
5746 5751 5756 5760 5765 5770 5775 5780 5787 5792 5796 5799 5805 5812 5819 5866 5852 5865 5871 5858 5865 5867 5869 5870 5859 5845 5853 5838 5836 5847 5830 5831 5841 5861 5851 5845 5827 5854 5865 5853 5843 5843 5843 5840 5836
5749 5753 5758 5763 5768 5773 5778 5783 5791 5795 5803 5810 5817 5809 5841 5841 5863 5867 5874 5868 5858 5856 5850 5847 5842 5831 5841 5837 5818 5827 5824 5842 5832 5851 5848 5835 5836 5854 5868 5858 5850 5850 5848 5842 5841
5752 5757 5761 5765 5770 5774 5783 5796 5795 5796 5811 5821 5829 5835 5850 5869 5877 5859 5869 5857 5855 5847 5824 5842 5822 5817 5840 5858 5855 5839 5829 5828 5843 5858 5840 5835 5839 5855 5868 5867 5858 5855 5852 5853 5847
5756 5761 5764 5767 5771 5774 5779 5802 5829 5837 5815 5834 5841 5845 5857 5867 5841 5852 5870 5837 5836 5819 5838 5827 5817 5844 5851 5851 5843 5832 5824 5824 5844 5859 5844 5838 5842 5864 5874 5870 5869 5863 5858 5859 5854
5759 5763 5766 5769 5772 5778 5799 5817 5845 5846 5818 5838 5844 5843 5847 5853 5843 5848 5857 5845 5833 5824 5828 5821 5840 5861 5843 5837 5830 5832 5825 5827 5828 5844 5847 5846 5841 5859 5878 5871 5872 5872 5875 5873 5866
5760 5764 5767 5769 5772 5808 5806 5830 5837 5844 5799 5824 5830 5844 5852 5851 5835 5874 5867 5847 5834 5823 5833 5832 5852 5841 5836 5828 5832 5815 5850 5846 5832 5823 5802 5845 5802 5850 5856 5860 5865 5872 5878 5878 5873
5761 5765 5767 5767 5784 5808 5831 5842 5843 5830 5770 5828 5837 5873 5858 5838 5853 5846 5870 5847 5824 5830 5830 5821 5836 5829 5821 5827 5841 5824 5848 5839 5832 5821 5820 5832 5829 5841 5861 5847 5855 5869 5870 5877 5881
5762 5765 5766 5772 5782 5812 5833 5836 5825 5783 5779 5822 5839 5828 5829 5836 5843 5847 5842 5852 5850 5828 5836 5832 5854 5843 5834 5843 5845 5846 5832 5833 5835 5824 5794 5835 5837 5848 5843 5852 5856 5869 5867 5872 5876
5763 5766 5767 5788 5805 5827 5830 5815 5780 5777 5846 5823 5822 5832 5827 5821 5828 5831 5820 5816 5807 5795 5803 5831 5837 5850 5849 5825 5842 5835 5819 5791 5798 5799 5793 5813 5830 5847 5866 5868 5866 5864 5869 5868 5873
5764 5766 5782 5792 5807 5821 5816 5789 5767 5823 5839 5854 5841 5832 5815 5831 5829 5828 5818 5810 5826 5825 5817 5818 5817 5846 5857 5833 5824 5832 5832 5807 5780 5795 5818 5844 5819 5844 5874 5876 5873 5874 5873 5869 5867
5761 5774 5790 5808 5806 5816 5796 5773 5798 5830 5851 5835 5836 5817 5818 5836 5839 5828 5823 5826 5842 5842 5812 5813 5824 5858 5850 5850 5839 5825 5818 5852 5825 5836 5821 5841 5845 5850 5849 5859 5861 5860 5862 5860 5864
5774 5791 5807 5821 5818 5806 5785 5776 5807 5832 5834 5834 5819 5831 5820 5829 5825 5825 5827 5846 5840 5840 5838 5819 5796 5839 5850 5850 5843 5829 5843 5809 5826 5787 5780 5818 5813 5790 5819 5833 5846 5839 5844 5851 5859
5773 5782 5817 5824 5817 5792 5776 5801 5820 5831 5828 5819 5824 5831 5834 5836 5837 5825 5833 5838 5841 5829 5828 5819 5807 5808 5832 5828 5825 5832 5817 5823 5826 5817 5792 5792 5805 5839 5827 5839 5839 5827 5831 5837 5844
5780 5773 5818 5823 5780 5792 5789 5813 5800 5817 5826 5822 5826 5827 5827 5836 5830 5825 5825 5816 5827 5825 5802 5814 5797 5783 5801 5833 5843 5837 5829 5830 5801 5792 5812 5800 5801 5841 5833 5822 5825 5816 5818 5825 5831
5770 5796 5820 5814 5773 5791 5810 5806 5810 5810 5813 5814 5811 5820 5824 5811 5796 5812 5820 5814 5816 5808 5781 5796 5788 5769 5781 5810 5839 5811 5828 5827 5827 5821 5797 5788 5807 5834 5826 5822 5803 5790 5811 5815 5818
5768 5780 5797 5799 5801 5793 5802 5795 5794 5809 5804 5809 5807 5812 5802 5798 5807 5792 5799 5813 5805 5801 5781 5784 5774 5763 5749 5769 5796 5782 5798 5808 5801 5786 5787 5787 5810 5815 5777 5764 5765 5773 5792 5803 5807
5769 5782 5794 5782 5788 5796 5800 5796 5792 5789 5800 5802 5791 5793 5789 5778 5789 5791 5799 5799 5795 5775 5781 5773 5746 5760 5768 5776 5781 5783 5784 5786 5780 5784 5769 5786 5793 5805 5791 5763 5757 5782 5776 5791 5793
5753 5757 5772 5783 5788 5782 5771 5779 5782 5790 5787 5781 5779 5787 5787 5769 5773 5768 5780 5778 5774 5779 5770 5773 5744 5751 5745 5763 5766 5761 5774 5778 5779 5780 5779 5780 5778 5809 5817 5784 5746 5742 5769 5775 5780
5744 5758 5756 5764 5774 5774 5779 5782 5780 5779 5782 5778 5774 5769 5765 5762 5772 5775 5777 5774 5770 5760 5756 5753 5745 5733 5724 5746 5747 5735 5759 5768 5773 5777 5772 5759 5780 5780 5775 5769 5762 5758 5756 5756 5768